Juneau, AK

6:59 PM AKST on February 20, 2018 (GMT -0900)
Juneau International

Weather History for PAJN - October, 2013

Change the Weather History Date:

Friday, October 11, 2013

  Actual Average Record
Temperature  
Mean Temperature 45 °F -  
Max Temperature 46 °F 48 °F 58 °F (1944)
Min Temperature 43 °F 38 °F 22 °F (1959)
Degree Days  
Heating Degree Days 20    
Month to date heating degree days 216  
Moisture  
Dew Point 43 °F    
Average Humidity 96    
Maximum Humidity 100    
Minimum Humidity 92    
Precipitation  
Precipitation 0.39 in - - ()
Month to date precipitation 4.24  
Year to date precipitation 52.68  
Snow  
Snow 0.00 in - - ()
Month to date snowfall T  
Snow Depth 0.00 in    
Sea Level Pressure  
Sea Level Pressure 30.07 in    
Wind  
Wind Speed 9 mph (East)    
Max Wind Speed 15 mph    
Max Gust Speed 24 mph    
Visibility 8 miles    
Events Fog , Rain    
Averages and records for this station are not official NWS values.
T = Trace of Precipitation, MM = Missing Value Source: NWS Daily Summary

Daily Weather History Graph

Daily Weather History Graph

Search for Another Location

Airport or City:

Trip Planner

Search our weather history database for the weather conditions in past years. The results will help you decide how hot, cold, wet, or windy it might be!

Date:

Astronomy

Oct. 11, 2013 Rise Set
Actual Time 7:26 AM AKDT 6:02 PM AKDT
Civil Twilight 6:46 AM AKDT 6:42 PM AKDT
Nautical Twilight 6:00 AM AKDT 7:28 PM AKDT
Astronomical Twilight 5:13 AM AKDT 8:14 PM AKDT
Moon 2:55 PM AKDT (10/11) 11:18 PM AKDT (10/11)
Length of Visible Light 11h 56m
Length of Day
10h 36m
Waxing Crescent, 49% of the Moon is Illuminated
Oct 11
Waxing Crescent
Oct 11
First Quarter
Oct 18
Full
Oct 26
Last Quarter
Nov 3
New

Hourly Weather History & Observations

Time (AKDT) Temp. Windchill Dew Point Humidity Pressure Visibility Wind Dir Wind Speed Gust Speed Precip Events Conditions
12:53 AM 44.1 °F 39.5 °F 43.0 °F 96% 29.99 in 5.0 mi ENE 8.1 mph - 0.05 in Rain Rain
1:53 AM 44.1 °F 39.5 °F 43.0 °F 96% 30.00 in 6.0 mi East 8.1 mph - 0.07 in Rain Light Rain
2:34 AM 45.0 °F 40.6 °F 43.0 °F 93% 29.99 in 6.0 mi East 8.1 mph - 0.02 in Rain Light Rain
2:53 AM 44.1 °F 39.0 °F 42.1 °F 93% 29.99 in 7.0 mi East 9.2 mph - 0.03 in Rain Light Rain
3:06 AM 44.1 °F 39.5 °F 42.1 °F 93% 29.99 in 8.0 mi ENE 8.1 mph - 0.02 in Rain Light Rain
3:25 AM 43.0 °F 38.8 °F 41.0 °F 93% 29.99 in 7.0 mi ENE 6.9 mph - 0.03 in Rain Light Rain
3:53 AM 43.0 °F 38.2 °F 41.0 °F 93% 29.99 in 6.0 mi East 8.1 mph - 0.05 in Rain Light Rain
4:47 AM 42.8 °F 38.6 °F 41.0 °F 93% 30.00 in 10.0 mi ENE 6.9 mph - 0.03 in Rain Light Rain
4:53 AM 43.0 °F 37.7 °F 41.0 °F 93% 30.00 in 10.0 mi East 9.2 mph - 0.03 in Rain Light Rain
5:53 AM 43.0 °F 38.8 °F 42.1 °F 97% 30.01 in 5.0 mi ENE 6.9 mph - 0.03 in Rain Light Rain
6:26 AM 44.1 °F 38.6 °F 42.1 °F 93% 30.01 in 6.0 mi East 10.4 mph - 0.02 in Rain Light Rain
6:33 AM 43.0 °F 37.7 °F 41.0 °F 93% 30.02 in 6.0 mi ENE 9.2 mph - 0.03 in Rain Light Rain
6:53 AM 43.0 °F 38.2 °F 41.0 °F 93% 30.02 in 7.0 mi ENE 8.1 mph - 0.03 in Rain Light Rain
7:53 AM 44.1 °F 38.6 °F 42.1 °F 93% 30.03 in 6.0 mi East 10.4 mph 19.6 mph 0.03 in Rain Light Rain
8:53 AM 44.1 °F 39.0 °F 43.0 °F 96% 30.04 in 10.0 mi East 9.2 mph - 0.02 in Rain Light Rain
9:53 AM 44.1 °F 39.0 °F 43.0 °F 96% 30.06 in 9.0 mi ENE 9.2 mph - 0.00 in Rain Light Rain
10:53 AM 45.0 °F 39.7 °F 43.0 °F 93% 30.07 in 10.0 mi East 10.4 mph - 0.01 in Rain Light Rain
11:53 AM 45.0 °F 40.1 °F 43.0 °F 93% 30.09 in 10.0 mi East 9.2 mph - 0.01 in Rain Light Rain
12:53 PM 45.0 °F 39.7 °F 43.0 °F 93% 30.10 in 10.0 mi East 10.4 mph - 0.00 in Rain Light Rain
1:53 PM 45.0 °F 38.9 °F 43.0 °F 93% 30.10 in 10.0 mi East 12.7 mph - 0.00 in Rain Light Rain
2:53 PM 46.0 °F 40.6 °F 43.0 °F 89% 30.12 in 10.0 mi East 11.5 mph - 0.00 in   Overcast
3:53 PM 46.0 °F 40.2 °F 44.1 °F 93% 30.12 in 10.0 mi East 12.7 mph - N/A   Overcast
4:53 PM 46.0 °F 42.5 °F 43.0 °F 89% 30.13 in 10.0 mi ENE 6.9 mph - N/A Rain Light Rain
5:53 PM 45.0 °F 41.2 °F 43.0 °F 93% 30.14 in 10.0 mi ENE 6.9 mph - 0.01 in   Overcast
6:53 PM 45.0 °F 40.6 °F 43.0 °F 93% 30.15 in 7.0 mi East 8.1 mph - 0.03 in Rain Light Rain
7:53 PM 45.0 °F 40.6 °F 43.0 °F 93% 30.16 in 10.0 mi East 8.1 mph - 0.03 in Rain Light Rain
8:53 PM 44.1 °F 40.1 °F 43.0 °F 96% 30.17 in 8.0 mi East 6.9 mph - 0.01 in Rain Light Rain
9:53 PM 44.1 °F 39.5 °F 43.0 °F 96% 30.18 in 10.0 mi East 8.1 mph - 0.00 in Fog Patches of Fog
10:53 PM 45.0 °F 42.6 °F 43.0 °F 93% 30.19 in 10.0 mi East 4.6 mph - N/A Fog Patches of Fog
11:53 PM 45.0 °F 41.2 °F 43.0 °F 93% 30.20 in 10.0 mi ENE 6.9 mph - N/A   Overcast